This is the latest recevied weather packets stored in our database for station/object CE3PA-5. If no packets are shown the sender has not sent any weather packets the latest 10 day(s).
| Time | Temp. | Humidity | Pressure | Rain* | Wind** | Luminosity | Snow |
|---|---|---|---|---|---|---|---|
| 1777931757 | 18.89° C | 19% | 755.4 hPa | - | - | - | - |
| 1777930856 | 20.56° C | 18% | 755.4 hPa | - | - | - | - |
| 1777929058 | 23.33° C | 17% | 755.3 hPa | - | - | - | - |
| 1777928155 | 24.44° C | 17% | 755.3 hPa | - | - | - | - |
| 1777927255 | 24.44° C | 17% | 755.3 hPa | - | - | - | - |
| 1777926356 | 25° C | 17% | 755.2 hPa | - | - | - | - |
| 1777925455 | 25° C | 17% | 755.1 hPa | - | - | - | - |
| 1777922755 | 21.11° C | 18% | 755.2 hPa | - | - | - | - |
| 1777921857 | 20.56° C | 18% | 755.2 hPa | - | - | - | - |
| 1777920953 | 20° C | 18% | 755.3 hPa | - | - | - | - |
| 1777920053 | 20° C | 18% | 755.5 hPa | - | - | - | - |
| 1777919152 | 20° C | 17% | 755.5 hPa | - | - | - | - |
| 1777918253 | 20.56° C | 17% | 755.5 hPa | - | - | - | - |
| 1777917353 | 20° C | 17% | 755.6 hPa | - | - | - | - |
| 1777915555 | 22.22° C | 16% | 755.8 hPa | - | - | - | - |
| 1777914656 | 22.78° C | 16% | 755.8 hPa | - | - | - | - |
| 1777912855 | 20.56° C | 16% | 756 hPa | - | - | - | - |
| 1777911954 | 19.44° C | 16% | 756.1 hPa | - | - | - | - |
| 1777907453 | 17.22° C | 17% | 756.2 hPa | - | - | - | - |
| 1777905654 | 14.44° C | 18% | 756.3 hPa | - | - | - | - |
| 1777902953 | 11.67° C | 19% | 756.2 hPa | - | - | - | - |
| 1777901152 | 10.56° C | 19% | 756.1 hPa | - | - | - | - |
| 1777899353 | 10° C | 20% | 756.1 hPa | - | - | - | - |
| 1777898453 | 9.44° C | 20% | 756.1 hPa | - | - | - | - |
| 1777897552 | 9.44° C | 20% | 756.1 hPa | - | - | - | - |
* Rain since midnight (hover to see other rain measurements)
** Current wind speed in m/s (hover to see current wind gust speed)